Hourly Weather Roundup
Issued by NWS Central Illinois

Home | Current Version | Previous Version | Text Only | Print | Product List | Glossary On
Versions: 1 2 3 4 5 6 7 8 9 10 11 12 13 14 15 16 17 18 19 20 21 22 23 24 25 26 27 28 29 30 31 32 33 34 35 36 37 38 39 40 41 42 43 44 45 46 47 48 49 50
000
NZUS43 KILX 051310
HWRILX

AREA WEATHER ROUNDUP
NATIONAL WEATHER SERVICE, LINCOLN IL
800 AM CDT TUE MAY 05 2015


CITY           SKY/WX    TMP DP  RH WIND       PRES   REMARKS
BLOOMINGTON    CLOUDY    65  63  93 SE6       30.18R
CHAMPAIGN      CLOUDY    69  56  62 SW9       30.19R
DANVILLE       PTSUNNY   65  58  77 SW3       30.18R
DECATUR        CLOUDY    66  57  72 S7        30.19R
EFFINGHAM      PTSUNNY   69  50  51 S8        30.22S
FLORA          SUNNY     70  55  59 SW9       30.22R
GALESBURG      CLOUDY    62  61  97 SE5       30.16R FOG
JACKSONVILLE   PTSUNNY   71  58  65 S6        30.16R
LACON          CLOUDY    62  60  93 E6        30.15S FOG
LAWRENCEVILLE  SUNNY     68  56  65 S7        30.23R
LITCHFIELD     PTSUNNY   65  54  67 S9        30.19R
$$


CITY           SKY/WX    TMP DP  RH WIND       PRES   REMARKS
LINCOLN        CLOUDY    68  62  82 S3        30.16R
MACOMB         PTSUNNY   64  64  98 SE9       30.18R FOG
MATTOON        PTSUNNY   66  53  63 S8        30.19R
MT CARMEL AP   SUNNY     72  50  46 SW12      30.22S
OLNEY-NOBLE AP MOSUNNY   68  54  60 S7        30.23R
PARIS          MOSUNNY   71  55  56 SW12      30.20S
PEORIA         PTSUNNY   65  60  84 SE3       30.16R HAZE
PONTIAC        CLOUDY    64  63  96 E12       30.18R FOG
RANTOUL        PTSUNNY   66  60  81 CALM      30.19R
ROBINSON       SUNNY     69  54  59 S7        30.22S
SPRINGFIELD    PTSUNNY   69  58  67 SE3       30.17R
TAYLORVILLE    CLOUDY    64  54  68 S3        30.19S
$$

...REGIONAL REPORTS...


CITY           SKY/WX    TMP DP  RH WIND       PRES   REMARKS
CHICAGO O`HARE CLOUDY    51  50  96 NE12      30.17S
KANKAKEE       CLOUDY    61  60  97 SE8       30.17F FOG
MOLINE         CLOUDY    59  56  89 E6        30.16R FOG
MOUNT VERNON   MOSUNNY  N/A N/A N/A SW3       30.23R
PITTSFIELD     MOSUNNY   70  58  64 SW5       30.16R
QUINCY         PTSUNNY   67  60  78 S3        30.15R
ROCKFORD       LGT RAIN  54  50  86 E6        30.22R
$$


CITY           SKY/WX    TMP DP  RH WIND       PRES   REMARKS
BURLINGTON     CLOUDY    63  62  97 S6        30.15R
CEDAR RAPIDS   LGT RAIN  62  62 100 SE5       30.13R FOG
DES MOINES     LGT RAIN  63  60  90 S10       30.10S FOG
KIRKSVILLE     CLOUDY    64  63  96 NE5       30.15S FOG
OTTUMWA        FOG       61  61 100 S9        30.11S VSB 3/4
ST LOUIS       PTSUNNY   71  55  56 SW12      30.18R
$$


CITY           SKY/WX    TMP DP  RH WIND       PRES   REMARKS
TERRE HAUTE    PTSUNNY   65  56  72 S5        30.22R
EVANSVILLE     SUNNY     68  55  63 SW6       30.25R
INDIANAPOLIS   PTSUNNY   68  56  65 SW8       30.22R
LAFAYETTE      PTSUNNY   64  60  87 E5        30.20R FOG
MADISON        LGT RAIN  49  43  80 E6        30.24R
MILWAUKEE      LGT RAIN  45  41  86 NE16      30.25F
$$




USA.gov is the U.S. government's official web portal to all federal, state and local government web resources and services.